ARIANE 42P DEB, 44512

Orbit data source: Space-Track

ARIANE 42P DEB, 44512 is space debris in LEO originally from a launch on Mon, 10 Aug 1992 UTC launched from the French Guiana (FRGUI). Debris objects in space refer to the collection of defunct objects orbiting the Earth. Examples of debris include non-operational satellites, rocket bodies, and fragments generated from explosions, collisions, or faulty payload assembly.

Loading next visibility...
ARIANE 42P DEB details
Identifier
44512, 1992-052K
Orbit
LEO
Last TLE update7 hours ago
Origin
Flag of FRArianespace (FR)
ManufacturerArianeGroup
MissionSpacecraft
Bus & MotorUnknown
MassUnknown
Launch date (UTC)
1992-08-10 (32 years ago)
Launch vehicleUnknown
Launch site
French Guiana (FRGUI)
Object type
Payload
Rocket body
Debris
Shape & HBRUnknown
Radar Cross SectionSmall (<0.1 m²)

Expand to show TLE details & history

TLE from 7 hours ago
0 ARIANE 42P DEB
1 44512U 92052K   24361.15928135  .00004400  00000-0  15947-1 0  9999
2 44512  65.9089 280.4126 0254624 198.8802 160.2640 12.84819101251199
Epoch: 2024-12-26T03:49Z
Definitive object data (Epoch: 2024-12-26T03:49:21.908Z)
Latitude-0.00007°
Longitude127.92861°
Altitude1,509.176 km
Speed7.025 km/s
True Right ascension18h 41m 39s
True Declination0° 00' 00"
Sunlit
Object was in daylight at TLE epoch
Visualization TLE readout
Latitude-49.17234°
Longitude-21.68101°
Altitude1,181.841 km
Speed7.337 km/s
Apparent Right ascension03h 28m 44s
Apparent Declination-80° 27' 18"
Sunlit
Object is in daylight
Visualization observer readout
Local Sidereal Time09:59:58
Azimuth192.486° SSW
Elevation-40.546°
Doppler factor1
Orbital elements
Apogee altitude1,516.76 km
Perigee altitude1,124.697 km
Semi-major axis7,698.865 km
Eccentricity0.0254624
Inclination65.9089°
RAAN280.4126°
Arg. of periapsis198.8802°
True anomaly161.22056°
Mean anomaly160.264°
Eccentric anomaly160.7451°
Mean motion3.21294 °/min
BSTAR0.015947
Orbital period112.05 mins
Loading maneuver chart data...
Loading historical data...
Loading historical data...
Loading historical data...
Loading historical data...
Loading historical data...
Loading historical data...
Loading historical data...

ARIANE 42P DEB Visibility forecast

Observer location: undefined°, undefined

Span
Click to sort rows by Start time (UTC) header in descending order
Start Az.
Max El. time (UTC)
Max El. Az.
Max El.
End time (UTC)
End Az.
13 mins2024-12-26 18:51:45.195Z151.477° SSE2024-12-26 18:58:45.195Z99.039° ESE22.591°2024-12-26 19:04:45.195Z55.348° ENE
16 mins2024-12-26 20:45:45.195Z215.098° SW2024-12-26 20:52:45.195Z272.357° WNW44.356°2024-12-26 21:01:45.195Z28.555° NE
12 mins2024-12-26 22:44:45.195Z279.825° WNW2024-12-26 22:49:45.195Z318.89° NNW22.018°2024-12-26 22:56:45.195Z13.628° NNE
7 mins2024-12-27 02:46:45.195Z359.264° N2024-12-27 02:49:45.195Z22.557° NE14.301°2024-12-27 02:53:45.195Z54.321° ENE
13 mins2024-12-27 04:41:45.195Z342.293° N2024-12-27 04:47:45.195Z46.252° ENE36.216°2024-12-27 04:54:45.195Z122.827° SE
12 mins2024-12-27 06:37:45.195Z309.694° NW2024-12-27 06:42:45.195Z260.382° W30.952°2024-12-27 06:49:45.195Z187.649° SSW
|